Weather History for Homer, AK

Change the Weather History Date:

Friday, May 10, 2013

  Actual Average Record
Temperature  
Mean Temperature 43 °F -  
Max Temperature 55 °F 48 °F 61 °F (1970)
Min Temperature 33 °F 35 °F 15 °F (1964)
Degree Days  
Heating Degree Days 22    
Moisture  
Dew Point 33 °F    
Average Humidity 69    
Maximum Humidity 82    
Minimum Humidity 41    
Precipitation  
Precipitation 0.00 in - - ()
Sea Level Pressure  
Sea Level Pressure 30.09 in    
Wind  
Wind Speed 2 mph (SW)    
Max Wind Speed 13 mph    
Max Gust Speed -    
Visibility 10 miles    
Events      
Averages and records for this station are not official NWS values.
T = Trace of Precipitation, MM = Missing Value Source: NWS Daily Summary

Daily Weather History Graph

Daily Weather History Graph

Search for Another Location

Airport:

Trip Planner

Search our weather history database for the weather conditions in past years. The results will help you decide how hot, cold, wet, or windy it might be!

Date:

Astronomy

May. 10, 2013 Rise Set
Actual Time 5:41 AM AKDT 10:24 PM AKDT
Civil Twilight 4:43 AM AKDT 11:23 PM AKDT
Nautical Twilight 2:50 AM AKDT 1:24 AM AKDT
Astronomical Twilight Sun does not rise Sun does not rise
Moon 6:10 AM AKDT (5/10) 11:30 PM AKDT (5/10)
Length of Visible Light 18h 40m
Length of Day
16h 43m
New Moon, 1% of the Moon is Illuminated
May 10
New Moon
May 17
First Quarter
May 24
Full
May 31
Last Quarter
Jun 8
New

Hourly Weather History & Observations

Time (AKDT) Temp. Windchill Dew Point Humidity Pressure Visibility Wind Dir Wind Speed Gust Speed Precip Events Conditions
12:53 AM 36.0 °F - 28.9 °F 76% 30.23 in 10.0 mi Calm Calm - N/A   Clear
1:53 AM 35.1 °F - 28.0 °F 76% 30.22 in 10.0 mi Calm Calm - N/A   Clear
2:53 AM 35.1 °F - 28.9 °F 78% 30.21 in 10.0 mi Calm Calm - N/A   Mostly Cloudy
3:53 AM 33.1 °F - 28.0 °F 82% 30.19 in 10.0 mi Calm Calm - N/A   Clear
4:53 AM 33.1 °F - 28.0 °F 82% 30.18 in 10.0 mi Calm Calm - N/A   Clear
5:53 AM 33.1 °F - 28.0 °F 82% 30.17 in 10.0 mi Calm Calm - N/A   Clear
6:53 AM 35.1 °F - 30.0 °F 82% 30.15 in 10.0 mi Calm Calm - N/A   Clear
7:53 AM 39.9 °F - 33.1 °F 77% 30.14 in 10.0 mi Calm Calm - N/A   Clear
8:53 AM 42.1 °F - 35.1 °F 76% 30.14 in 10.0 mi Calm Calm - N/A   Clear
9:53 AM 44.1 °F - 32.0 °F 63% 30.13 in 10.0 mi Calm Calm - N/A   Clear
10:53 AM 45.0 °F - 32.0 °F 60% 30.12 in 10.0 mi Calm Calm - N/A   Clear
11:53 AM 46.0 °F - 35.1 °F 66% 30.11 in 10.0 mi Calm Calm - N/A   Mostly Cloudy
12:53 PM 48.0 °F - 35.1 °F 61% 30.09 in 10.0 mi Calm Calm - N/A   Scattered Clouds
1:53 PM 50.0 °F - 35.1 °F 57% 30.07 in 10.0 mi SSW 3.5 mph - N/A   Overcast
2:53 PM 51.1 °F - 33.1 °F 50% 30.05 in 10.0 mi SW 8.1 mph - N/A   Scattered Clouds
3:53 PM 48.9 °F - 36.0 °F 61% 30.04 in 10.0 mi SSW 8.1 mph - N/A   Scattered Clouds
4:53 PM 48.9 °F - 37.0 °F 64% 30.01 in 10.0 mi SW 6.9 mph - N/A   Scattered Clouds
5:53 PM 53.1 °F - 30.0 °F 41% 30.00 in 10.0 mi West 5.8 mph - N/A   Scattered Clouds
6:53 PM 48.0 °F - 39.0 °F 71% 29.97 in 10.0 mi SSW 6.9 mph - N/A   Scattered Clouds
7:53 PM 46.0 °F 41.4 °F 39.0 °F 76% 29.97 in 10.0 mi SW 9.2 mph - N/A   Mostly Cloudy
8:53 PM 45.0 °F 39.7 °F 37.0 °F 74% 29.98 in 10.0 mi WSW 10.4 mph - N/A   Overcast
9:53 PM 44.1 °F 37.7 °F 35.1 °F 71% 29.97 in 10.0 mi West 12.7 mph - N/A   Overcast
10:53 PM 44.1 °F 39.0 °F 35.1 °F 71% 29.97 in 10.0 mi WSW 9.2 mph - N/A   Overcast
11:53 PM 46.0 °F 43.9 °F 33.1 °F 61% 29.96 in 10.0 mi West 4.6 mph - N/A   Overcast